Location: Sungai Bunut
(2.6333°N, 113.7333°E)
Time: 18:06:00
(UTC+00:00)

Cosmos 1707 - Pass Details

Date: 16 October 2021
Orbit: 513 x 529 km, 82.5° (Epoch: 07 December)

Event Time Altitude Azimuth Distance (km) Brightness Sun altitude
Rises 20:56:22 0° 191° (S) 2,648 6.3 -18.7°
Reaches altitude 10° 20:58:32 10° 195° (SSW) 1,761 5.3 -18.2°
Maximum altitude 21:02:19 56° 274° (W) 625 2.7 -17.2°
Drops below altitude 10° 21:06:08 10° 353° (N) 1,761 5.2 -16.3°
Sets 21:08:17 0° 357° (N) 2,649 6.2 -15.8°
